Вернуться в каталог

METEOR 2-17 DEB

АктивенPO
NORAD 29302·DEBRIS·🇷🇺 Russia

Запущен Jan 30, 1988 с Plesetsk Cosmodrome

Loading…

Ближайшие Пролёты (ближайшие 24 часа)

TLE

СвежийSource: Space-Track

Эпоха: Sep 12, 2026, 00:18 UTC

1 29302U 88005R   26255.01254772  .00001242  00000-0  69757-3 0  9991
2 29302  82.5565 141.6226 0016061   3.6502 356.4786 14.09788451633997

Отслеживайте METEOR 2-17 DEB в реальном времени с AllMySat

Download on the App Store